[[{"header":{"parameterUnit":"m.s-1","parameterCategory":1,"la1":30.2991,"la2":30.254,"lo1":-89.0895,"lo2":-89.0444,"dy":0.0017,"dx":0.0017,"nx":28,"ny":28,"refTime":"2025-04-03T21:00:00:Z","depth":0,"parameterNumber":2,"parameterNumberName":"U-component_of_WINDS"},"data":[0,0,0,0,0,0,0,0,0,0,0,0,0,0,0,0,0,0,0,0,0,0,0,0,0,0,0,0,0,0,0,0,0,0,0,0,0,0,0,0,0,0,0,0,0,0,0,0,0,0,0,0,0,0,0,0,0,0,-4.8145,-4.8147,0,-4.829,-4.8291,-4.8293,-4.8314,-4.8312,-4.8311,-4.831,-4.8457,-4.8462,-4.8467,0,0,0,0,0,0,0,0,0,0,0,0,0,-4.7888,-4.7893,-4.8145,-4.8147,-4.8149,-4.8289,-4.8291,-4.8293,-4.8314,-4.8312,-4.8311,-4.8309,-4.8455,-4.8461,-4.8467,0,0,0,0,0,0,0,0,0,0,0,0,0,-4.8013,-4.7894,-4.8145,-4.8176,-4.818,-4.8289,-4.8291,-4.8294,-4.8314,-4.8312,-4.831,-4.8309,-4.8453,-4.8461,-4.8468,-4.8555,0,0,-4.8492,-4.8495,0,0,0,0,0,0,0,0,-4.8006,-4.8022,-4.817,-4.8174,-4.8179,-4.8282,-4.8255,-4.8382,-4.8315,-4.8264,-4.831,-4.8308,-4.84,-4.8412,-4.8443,-4.8562,-4.8569,-4.8492,-4.8497,-4.85,-4.8503,0,0,0,0,0,0,0,-4.7997,-4.8016,-4.8202,-4.8172,-4.8178,-4.8183,-4.8199,-4.8279,-4.8341,-4.8268,-4.827,-4.8287,-4.8402,-4.8436,-4.8447,-4.8571,-4.8492,-4.8499,-4.8504,-4.8507,-4.8769,-4.8771,0,0,0,0,0,0,-4.7983,-4.8009,-4.8198,-4.8207,-4.8086,-4.8189,-4.8207,-4.8251,-4.834,-4.8352,-4.8288,-4.8287,-4.8424,-4.8438,-4.8452,-4.856,-4.85,-4.8508,-4.8512,-4.8766,-4.8769,-4.8772,0,0,0,0,0,0,-4.7977,-4.7999,-4.8192,-4.8108,-4.8133,-4.8196,-4.8245,-4.8255,-4.8288,-4.8356,-4.8367,-4.8311,-4.8423,-4.8441,-4.853,-4.8565,-4.8511,-4.8518,-4.8764,-4.8767,-4.877,-4.8775,0,0,0,0,0,0,-4.797,-4.7997,-4.8031,-4.8109,-4.8138,-4.8267,-4.8247,-4.8259,-4.8302,-4.8302,-4.838,-4.8391,-4.8423,-4.8518,-4.8537,-4.8575,-4.8524,-4.8761,-4.8765,-4.8769,-4.8772,-4.8778,-4.8784,0,0,0,0,0,-4.796,-4.8026,-4.8032,-4.8055,-4.8181,-4.8269,-4.8285,-4.832,-4.8304,-4.8339,-4.8382,-4.8389,-4.8559,-4.8527,-4.8549,-4.8589,-4.8759,-4.8764,-4.8769,-4.8769,-4.8777,-4.8784,0,0,0,0,0,0,-4.795,-4.8037,-4.8045,-4.8138,-4.8196,-4.8272,-4.8316,-4.8327,-4.8391,-4.8388,-4.8429,-4.8447,-4.8533,-4.857,-4.8533,-4.8678,-4.8657,-4.8667,-4.865,-4.8658,-4.8664,-4.8652,-4.8531,0,0,0,0,0,-4.7959,-4.8023,-4.8096,-4.8171,-4.8199,-4.8253,-4.8292,-4.8315,-4.8376,-4.8401,-4.8451,-4.851,-4.8577,-4.862,-4.8685,-4.8779,-4.8796,-4.8817,-4.8823,-4.8827,-4.8835,-4.8887,-4.8897,-4.8789,-4.8789,-4.8789,0,0,-4.7977,-4.8033,-4.807,-4.817,-4.8217,-4.8283,-4.8273,-4.8343,-4.8391,-4.8411,-4.8497,-4.8536,-4.8606,-4.8696,-4.8739,-4.873,-4.8869,-4.8834,-4.8837,-4.8842,-4.8893,-4.8903,-4.8912,-4.8792,-4.8792,-4.8791,0,0,-4.8043,-4.8092,-4.816,-4.8208,-4.828,-4.8316,-4.8332,-4.8407,-4.8434,-4.8521,-4.8537,-4.8596,-4.8711,-4.8759,-4.8799,-4.8885,-4.8893,-4.8906,-4.8935,-4.8985,-4.8994,-4.9001,-4.9031,-4.9041,-4.8913,-4.8913,-4.8913,0,-4.8056,-4.8155,-4.8193,-4.8262,-4.8305,-4.8327,-4.8396,-4.8441,-4.8531,-4.856,-4.855,-4.8694,-4.8742,-4.8844,-4.8866,-4.8898,-4.8917,-4.8896,-4.899,-4.8998,-4.9005,-4.9034,-4.9045,-4.8914,-4.8914,-4.8914,-4.8914,0,-4.8168,-4.8236,-4.8282,-4.8368,-4.8417,-4.8486,-4.8534,-4.8579,-4.8598,-4.8634,-4.8723,-4.8782,-4.886,-4.8886,-4.8905,-4.8992,-4.8984,-4.8981,-4.896,-4.9016,-4.9043,-4.9055,-4.8915,-4.8915,-4.8915,-4.8915,0,0,-4.8229,-4.8336,-4.8352,-4.8392,-4.8474,-4.8528,-4.8598,-4.8674,-4.8711,-4.8773,-4.8832,-4.893,-4.8928,-4.8973,-4.8998,-4.9042,-4.9106,-4.9034,-4.9036,-4.9044,-4.9204,-4.9204,-4.9216,-4.9113,-4.9115,-4.9117,-4.9197,0,-4.8303,-4.8428,-4.8465,-4.857,-4.8633,-4.8656,-4.8717,-4.8774,-4.8811,-4.887,-4.8911,-4.8979,-4.8972,-4.8999,-4.9044,-4.9088,-4.9138,-4.9083,-4.9167,-4.917,-4.9147,-4.9231,-4.9231,-4.9304,-4.9209,-4.9211,-4.9212,0,-4.8406,-4.847,-4.8581,-4.8656,-4.8684,-4.8738,-4.881,-4.8867,-4.8933,-4.8957,-4.9008,-4.9029,-4.9103,-4.908,-4.9183,-4.9145,-4.9182,-4.9209,-4.9213,-4.922,-4.9192,-4.9238,-4.9328,-4.9339,-4.923,-4.9228,-4.9227,0,-4.8438,-4.8552,-4.8633,-4.8667,-4.8756,-4.8793,-4.8832,-4.8896,-4.8939,-4.9004,-4.9032,-4.9104,-4.9143,-4.9199,-4.9239,-4.9219,-4.9338,-4.9318,-4.9359,-4.9358,-4.938,-4.9378,-4.9476,-4.9408,-4.9408,-4.9407,-4.9407,0,-4.8516,-4.8583,-4.8648,-4.8698,-4.8774,-4.8816,-4.889,-4.893,-4.8987,-4.9045,-4.907,-4.9124,-4.9175,-4.9236,-4.9268,-4.9347,-4.9365,-4.9386,-4.9393,-4.9383,-4.938,-4.9406,-4.9401,-4.941,-4.941,-4.9409,-4.9409,0,-4.8563,-4.861,-4.87,-4.8777,-4.8798,-4.885,-4.8917,-4.8966,-4.9005,-4.9078,-4.9097,-4.9157,-4.923,-4.9277,-4.937,-4.9392,-4.9478,-4.9485,-4.9456,-4.9459,-4.9496,-4.9491,-4.9612,-4.9629,-4.9551,-4.9552,-4.9553,0,-4.8609,-4.8661,-4.8744,-4.8784,-4.8824,-4.8889,-4.8934,-4.8978,-4.9023,-4.9103,-4.9142,-4.9217,-4.9279,-4.9395,-4.9447,-4.9518,-4.9526,-4.9563,-4.9536,-4.9524,-4.9524,-4.952,-4.9525,-4.9567,-4.9567,-4.9568,-4.9568,0,-4.8684,-4.8705,-4.8769,-4.8841,-4.8893,-4.8952,-4.9011,-4.9043,-4.9097,-4.9147,-4.9222,-4.927,-4.9366,-4.9439,-4.9516,-4.9556,-4.9571,-4.9577,-4.959,-4.9578,-4.9558,-4.9568,-4.9466,-4.9573,-4.9573,-4.9572,-4.9572,-4.9572,-4.8732,-4.8778,-4.8844,-4.8914,-4.8963,-4.9018,-4.9068,-4.9113,-4.9176,-4.9256,-4.9279,-4.9357,-4.9423,-4.9527,-4.9569,-4.9631,-4.9626,-4.9645,-4.9649,-4.9653,-4.9652,-4.955,-4.9645,-4.9645,-4.9645,-4.9645,-4.9645,0,-4.8807,-4.8851,-4.8915,-4.8996,-4.9051,-4.9062,-4.9128,-4.9173,-4.9241,-4.9301,-4.9362,-4.9448,-4.952,-4.9578,-4.9652,-4.9691,-4.9699,-4.9709,-4.9705,-4.9714,-4.9653,-4.9634,-4.97,-4.97,-4.97,-4.97,-4.97,-4.97,-4.8853,-4.8933,-4.8962,-4.9066,-4.911,-4.9186,-4.9223,-4.9273,-4.9321,-4.9416,-4.9476,-4.9514,-4.9573,-4.9652,-4.9718,-4.9734,-4.9759,-4.9767,-4.9783,-4.9725,-4.9718,-4.9712,-4.9694,-4.9772,-4.9772,-4.9839,-4.9839,-4.984]},{"header":{"parameterUnit":"m.s-1","parameterCategory":1,"la1":30.2991,"la2":30.254,"lo1":-89.0895,"lo2":-89.0444,"dy":0.0017,"dx":0.0017,"nx":28,"ny":28,"refTime":"2025-04-03T21:00:00:Z","depth":0,"parameterNumber":3,"parameterNumberName":"V-component_of_WINDS"},"data":[0,0,0,0,0,0,0,0,0,0,0,0,0,0,0,0,0,0,0,0,0,0,0,0,0,0,0,0,0,0,0,0,0,0,0,0,0,0,0,0,0,0,0,0,0,0,0,0,0,0,0,0,0,0,0,0,0,0,5.5056,5.5058,0,5.5223,5.5225,5.5227,5.5243,5.5241,5.5239,5.5238,5.5408,5.5414,5.542,0,0,0,0,0,0,0,0,0,0,0,0,0,5.4752,5.4757,5.5056,5.5058,5.506,5.5223,5.5225,5.5227,5.5243,5.5241,5.5239,5.5237,5.5406,5.5413,5.5421,0,0,0,0,0,0,0,0,0,0,0,0,0,5.4898,5.4759,5.5055,5.5087,5.5092,5.5222,5.5225,5.5228,5.5244,5.5241,5.5238,5.5236,5.5404,5.5413,5.5422,5.5531,0,0,5.545,5.5454,0,0,0,0,0,0,0,0,5.4889,5.4909,5.5081,5.5085,5.5091,5.5209,5.518,5.5329,5.5244,5.5186,5.5238,5.5235,5.5344,5.5358,5.5395,5.5539,5.5546,5.5451,5.5456,5.546,5.5463,0,0,0,0,0,0,0,5.4879,5.4902,5.5122,5.5083,5.5089,5.5094,5.5112,5.5208,5.5278,5.5191,5.5192,5.5212,5.5346,5.5386,5.5399,5.5549,5.545,5.5459,5.5464,5.5468,5.5794,5.5797,0,0,0,0,0,0,5.4863,5.4893,5.5116,5.5127,5.4982,5.5101,5.5121,5.5174,5.5277,5.529,5.5214,5.5212,5.5372,5.5388,5.5405,5.5542,5.546,5.5469,5.5474,5.5791,5.5795,5.5798,0,0,0,0,0,0,5.4856,5.4883,5.511,5.5011,5.504,5.511,5.5168,5.5179,5.5218,5.5294,5.5306,5.5242,5.537,5.5392,5.55,5.5548,5.5473,5.5481,5.5787,5.5792,5.5796,5.5815,0,0,0,0,0,0,5.4847,5.488,5.4922,5.5011,5.5045,5.5202,5.5171,5.5184,5.5234,5.5233,5.5324,5.5336,5.537,5.5487,5.551,5.5559,5.5489,5.5783,5.5789,5.5795,5.5811,5.582,5.5828,0,0,0,0,0,5.4837,5.492,5.4924,5.4951,5.5099,5.5204,5.5224,5.5261,5.5238,5.5281,5.533,5.5333,5.5539,5.5497,5.5524,5.5577,5.578,5.5788,5.5795,5.5807,5.5818,5.5828,0,0,0,0,0,0,5.4833,5.4932,5.4938,5.5052,5.512,5.5207,5.5262,5.5271,5.5347,5.5343,5.5386,5.5406,5.5513,5.5556,5.5508,5.569,5.5658,5.567,5.5658,5.5669,5.5678,5.5666,5.5496,0,0,0,0,0,5.4846,5.4924,5.5006,5.5099,5.5133,5.5192,5.5239,5.5262,5.5334,5.5363,5.5419,5.5489,5.557,5.5622,5.57,5.5817,5.5838,5.5867,5.5875,5.5882,5.5893,5.596,5.5975,5.5821,5.5821,5.5821,0,0,5.4873,5.4936,5.4982,5.51,5.5155,5.5235,5.5216,5.53,5.5361,5.5375,5.5482,5.5526,5.5607,5.572,5.5773,5.5759,5.594,5.5891,5.5896,5.5903,5.5969,5.5984,5.5996,5.5826,5.5825,5.5824,0,0,5.4963,5.5018,5.5103,5.516,5.5244,5.5283,5.5303,5.539,5.542,5.5528,5.5541,5.5614,5.5751,5.5809,5.5856,5.5971,5.5977,5.5995,5.6041,5.6106,5.6118,5.6129,5.6172,5.6187,5.6005,5.6005,5.6005,0,5.4986,5.5107,5.5146,5.5231,5.5283,5.5301,5.5389,5.5441,5.5546,5.5582,5.5565,5.574,5.5795,5.5924,5.5953,5.599,5.6015,5.5985,5.6113,5.6125,5.6135,5.6177,5.6193,5.6007,5.6007,5.6007,5.6007,0,5.5132,5.5216,5.5274,5.5377,5.5436,5.5521,5.5574,5.5629,5.5647,5.5689,5.5799,5.5867,5.596,5.5992,5.601,5.6125,5.6114,5.6104,5.6073,5.6151,5.6191,5.6207,5.601,5.6009,5.6009,5.6008,0,0,5.5224,5.5348,5.5369,5.5417,5.5513,5.5579,5.5666,5.5758,5.5805,5.5878,5.5953,5.607,5.6064,5.6117,5.6142,5.62,5.6289,5.6184,5.6187,5.6203,5.6422,5.6429,5.6447,5.6294,5.6297,5.63,5.6416,0,5.5326,5.5483,5.5521,5.5655,5.5734,5.5754,5.583,5.5898,5.5939,5.6013,5.6058,5.6142,5.6125,5.6158,5.6216,5.6266,5.6334,5.6258,5.6366,5.6369,5.6346,5.6467,5.6475,5.6581,5.6431,5.6434,5.6436,0,5.5466,5.5543,5.5685,5.5773,5.5808,5.5876,5.5965,5.6035,5.6112,5.6138,5.62,5.622,5.6313,5.6277,5.6407,5.6354,5.6401,5.6432,5.6437,5.645,5.6408,5.6484,5.6615,5.6632,5.646,5.6458,5.6457,0,5.5522,5.5661,5.5764,5.5805,5.5909,5.5957,5.6002,5.6077,5.6131,5.6209,5.6244,5.6331,5.6379,5.6447,5.6491,5.646,5.6618,5.6585,5.6643,5.6643,5.6676,5.6674,5.6818,5.6704,5.6704,5.6703,5.6703,0,5.5633,5.5719,5.5791,5.5855,5.5953,5.5997,5.6094,5.614,5.6207,5.6281,5.6302,5.6371,5.6424,5.6501,5.6536,5.6639,5.666,5.6685,5.6694,5.6684,5.6681,5.6716,5.671,5.6708,5.6707,5.6706,5.6705,0,5.5711,5.5762,5.5877,5.5967,5.5992,5.606,5.6138,5.6201,5.6244,5.6337,5.6362,5.6429,5.6521,5.6571,5.6685,5.6709,5.6825,5.6829,5.6799,5.6803,5.686,5.6855,5.7033,5.7059,5.6926,5.6927,5.6928,0,5.5779,5.5847,5.5944,5.5996,5.6043,5.6125,5.618,5.6227,5.6284,5.6378,5.6431,5.6524,5.6601,5.6747,5.6806,5.6894,5.6902,5.6958,5.6915,5.6904,5.6905,5.6901,5.6909,5.6965,5.6967,5.6968,5.6969,0,5.5895,5.5918,5.5997,5.6086,5.6152,5.6224,5.6296,5.6337,5.6395,5.6458,5.6553,5.6613,5.6731,5.6824,5.6917,5.6965,5.6978,5.6982,5.7,5.6992,5.6973,5.6986,5.6821,5.6977,5.6977,5.6976,5.6975,5.6975,5.5972,5.6034,5.6113,5.6201,5.626,5.6327,5.6392,5.6444,5.6523,5.6623,5.6646,5.6746,5.6824,5.6951,5.7002,5.7081,5.7071,5.7097,5.7104,5.711,5.7114,5.6959,5.7098,5.7098,5.7098,5.7098,5.7098,0,5.6091,5.6144,5.6224,5.6325,5.6394,5.64,5.648,5.6539,5.6627,5.6698,5.6774,5.6884,5.6975,5.7042,5.7135,5.7186,5.7194,5.7209,5.7206,5.7218,5.7117,5.7092,5.7201,5.7201,5.7201,5.7201,5.7201,5.7201,5.6162,5.6267,5.63,5.6435,5.6487,5.6586,5.6632,5.6694,5.6752,5.6874,5.695,5.6993,5.7064,5.7162,5.7246,5.7264,5.7298,5.7312,5.733,5.7235,5.7224,5.7214,5.7191,5.7319,5.7319,5.7425,5.7426,5.7427]}]]